Location: Clanezzo
(45.7500°N, 9.6000°E)
Time: 07:53:34
(UTC+00:00)

AO-92 - Pass Details

Date: 30 June 2022
Orbit: 469 x 481 km, 97.4° (Epoch: 09 August)

Event Time Altitude Azimuth Distance (km) Brightness Sun altitude
Exits shadow 20:08:39 - 104° (ESE) 1,878 ? -7.9°
Reaches altitude 10° 20:09:34 10° 93° (E) 1,656 ? -8.0°
Maximum altitude 20:11:19 13° 63° (ENE) 1,468 ? -8.3°
Drops below altitude 10° 20:13:04 10° 34° (NE) 1,667 ? -8.5°
Sets 20:16:01 0° 7° (N) 2,557 ? -8.8°
